| time (UTC) | temp C | wind direction | speed KPH | gust KPH | rain 1hr cm | rain 24hr cm | rain mn cm | humidity % | barometer mb |
| 20260502200050 | 16 | 43 | 4.8 | 12.9 | 0.00 | 0.00 | 0.00 | 46 | 1008.2 |
| 20260502194547 | 16 | 41 | 0.0 | 6.4 | 0.00 | 0.00 | 0.00 | 45 | 1008.2 |
| 20260502193045 | 17 | 35 | 4.8 | 12.9 | 0.00 | 0.00 | 0.00 | 42 | 1008.2 |
| 20260502191555 | 18 | 33 | 9.7 | 19.3 | 0.00 | 0.00 | 0.00 | 39 | 1008.1 |
| 20260502190055 | 18 | 42 | 6.4 | 17.7 | 0.00 | 0.00 | 0.00 | 39 | 1008.1 |
| 20260502184556 | 19 | 38 | 9.7 | 17.7 | 0.00 | 0.00 | 0.00 | 38 | 1008.0 |
| 20260502183101 | 19 | 45 | 9.7 | 17.7 | 0.00 | 0.00 | 0.00 | 38 | 1007.9 |
| 20260502181546 | 20 | 50 | 12.9 | 22.5 | 0.00 | 0.00 | 0.00 | 37 | 1008.0 |
| 20260502163043 | 22 | 70 | 20.9 | 32.2 | 0.00 | 0.00 | 0.00 | 31 | 1008.0 |
| 20260502161533 | 22 | 34 | 17.7 | 30.6 | 0.00 | 0.00 | 0.00 | 31 | 1008.1 |
| 20260502151525 | 22 | 55 | 14.5 | 33.8 | 0.00 | 0.00 | 0.00 | 33 | 1008.6 |
| 20260502123007 | 22 | 51 | 16.1 | 35.4 | 0.00 | 0.00 | 0.00 | 35 | 1010.5 |
| 20260502121506 | 22 | 40 | 22.5 | 37.0 | 0.00 | 0.00 | 0.00 | 35 | 1010.9 |
| 20260502114501 | 22 | 43 | 16.1 | 37.0 | 0.00 | 0.00 | 0.00 | 37 | 1011.4 |
| 20260502113059 | 22 | 47 | 19.3 | 30.6 | 0.00 | 0.00 | 0.00 | 35 | 1011.4 |
| 20260502111606 | 22 | 25 | 19.3 | 32.2 | 0.00 | 0.00 | 0.00 | 36 | 1012.0 |
| 20260502110057 | 22 | 52 | 19.3 | 35.4 | 0.00 | 0.00 | 0.00 | 34 | 1011.9 |
| 20260502104555 | 22 | 70 | 19.3 | 32.2 | 0.00 | 0.00 | 0.00 | 36 | 1012.2 |
| 20260502103055 | 22 | 54 | 19.3 | 30.6 | 0.00 | 0.00 | 0.00 | 35 | 1012.2 |
| 20260502101554 | 22 | 40 | 12.9 | 32.2 | 0.00 | 0.00 | 0.00 | 38 | 1012.3 |
| 20260502071512 | 16 | 64 | 14.5 | 22.5 | 0.00 | 0.00 | 0.00 | 52 | 1015.0 |
| 20260502070009 | 16 | 31 | 14.5 | 22.5 | 0.00 | 0.00 | 0.00 | 52 | 1015.2 |
| 20260502064505 | 15 | 73 | 8.0 | 19.3 | 0.00 | 0.00 | 0.00 | 55 | 1015.3 |
| 20260502063003 | 15 | 50 | 9.7 | 19.3 | 0.00 | 0.00 | 0.00 | 55 | 1015.4 |
| 20260502061558 | 14 | 61 | 9.7 | 19.3 | 0.00 | 0.00 | 0.00 | 57 | 1015.6 |
| 20260502060054 | 13 | 58 | 8.0 | 12.9 | 0.00 | 0.00 | 0.00 | 60 | 1015.6 |
| 20260502054550 | 13 | 52 | 11.3 | 17.7 | 0.00 | 0.00 | 0.00 | 60 | 1015.7 |
| 20260502053056 | 12 | 34 | 8.0 | 14.5 | 0.00 | 0.00 | 0.00 | 64 | 1015.7 |
| 20260502051559 | 11 | 55 | 9.7 | 19.3 | 0.00 | 0.00 | 0.00 | 65 | 1015.8 |
| 20260502050043 | 11 | 38 | 6.4 | 11.3 | 0.00 | 0.00 | 0.00 | 67 | 1015.9 |
| 20260502044541 | 10 | 43 | 8.0 | 12.9 | 0.00 | 0.00 | 0.00 | 70 | 1016.0 |
| 20260502043040 | 10 | 45 | 3.2 | 9.7 | 0.00 | 0.00 | 0.00 | 71 | 1016.1 |
| 20260502041601 | 8 | 38 | 3.2 | 4.8 | 0.00 | 0.00 | 0.00 | 74 | 1016.0 |
| 20260502040042 | 8 | 38 | 0.0 | 4.8 | 0.00 | 0.00 | 0.00 | 74 | 1016.0 |
| 20260502034537 | 7 | 36 | 1.6 | 6.4 | 0.00 | 0.00 | 0.00 | 75 | 1016.1 |
| 20260502033050 | 7 | 31 | 1.6 | 6.4 | 0.00 | 0.00 | 0.00 | 75 | 1016.2 |
| 20260502031533 | 7 | 30 | 1.6 | 4.8 | 0.00 | 0.00 | 0.00 | 73 | 1016.3 |
| 20260502030031 | 7 | 33 | 1.6 | 4.8 | 0.00 | 0.00 | 0.00 | 72 | 1016.6 |
| 20260502024529 | 7 | 42 | 0.0 | 4.8 | 0.00 | 0.00 | 0.00 | 72 | 1016.6 |
| 20260502023027 | 7 | 33 | 0.0 | 6.4 | 0.00 | 0.00 | 0.00 | 72 | 1016.7 |
| 20260502021524 | 7 | 21 | 1.6 | 6.4 | 0.00 | 0.00 | 0.00 | 72 | 1016.8 |
| 20260502020021 | 8 | 30 | 0.0 | 4.8 | 0.00 | 0.00 | 0.00 | 71 | 1016.9 |
| 20260502014526 | 8 | 43 | 0.0 | 3.2 | 0.00 | 0.00 | 0.00 | 71 | 1017.1 |
| 20260502013016 | 8 | 45 | 0.0 | 3.2 | 0.00 | 0.00 | 0.00 | 70 | 1017.2 |
| 20260502011514 | 8 | 45 | 1.6 | 6.4 | 0.00 | 0.00 | 0.00 | 68 | 1017.3 |
| 20260502010010 | 9 | 53 | 1.6 | 9.7 | 0.00 | 0.00 | 0.00 | 67 | 1017.3 |
| 20260502004506 | 10 | 39 | 8.0 | 16.1 | 0.00 | 0.00 | 0.00 | 64 | 1017.5 |
| 20260502003003 | 10 | 51 | 9.7 | 17.7 | 0.00 | 0.00 | 0.00 | 62 | 1017.6 |
| 20260502001604 | 11 | 43 | 14.5 | 20.9 | 0.00 | 0.00 | 0.00 | 61 | 1017.7 |
| 20260502000056 | 11 | 28 | 12.9 | 22.5 | 0.00 | 0.00 | 0.00 | 60 | 1017.9 |
| 20260501234554 | 11 | 54 | 11.3 | 17.7 | 0.00 | 0.00 | 0.00 | 60 | 1018.0 |
| 20260501233105 | 11 | 46 | 11.3 | 17.7 | 0.00 | 0.00 | 0.00 | 59 | 1018.1 |
| 20260501231602 | 11 | 42 | 11.3 | 17.7 | 0.00 | 0.00 | 0.00 | 59 | 1018.2 |
| 20260501230049 | 11 | 58 | 8.0 | 14.5 | 0.00 | 0.00 | 0.00 | 59 | 1018.3 |
| 20260501224547 | 11 | 40 | 8.0 | 12.9 | 0.00 | 0.00 | 0.00 | 59 | 1018.4 |
| 20260501223109 | 11 | 45 | 6.4 | 14.5 | 0.00 | 0.00 | 0.00 | 59 | 1018.6 |
| 20260501221540 | 11 | 43 | 8.0 | 14.5 | 0.00 | 0.00 | 0.00 | 56 | 1018.6 |
| 20260501220035 | 12 | 38 | 6.4 | 12.9 | 0.00 | 0.00 | 0.00 | 55 | 1018.7 |
| 20260501214534 | 12 | 34 | 8.0 | 12.9 | 0.00 | 0.00 | 0.00 | 55 | 1018.8 |
| 20260501213036 | 11 | 54 | 8.0 | 14.5 | 0.00 | 0.00 | 0.00 | 56 | 1018.8 |
| 20260501211532 | 12 | 44 | 6.4 | 14.5 | 0.00 | 0.00 | 0.00 | 53 | 1018.9 |
| 20260501210032 | 12 | 47 | 8.0 | 16.1 | 0.00 | 0.00 | 0.00 | 52 | 1019.1 |
| 20260501204529 | 12 | 40 | 3.2 | 4.8 | 0.00 | 0.00 | 0.00 | 51 | 1019.1 |
| 20260501203027 | 13 | 52 | 3.2 | 9.7 | 0.00 | 0.00 | 0.00 | 48 | 1019.2 |
| 20260501201527 | 13 | 61 | 4.8 | 12.9 | 0.00 | 0.00 | 0.00 | 46 | 1019.4 |